Tracking 31028 objects as of 17-Jul-2025
HD Live streaming from Space Station
objects crossing your sky now

STARLINK-5363

Track STARLINK-5363 now!
10-day predictions
STARLINK-5363 is classified as:


NORAD ID: 55497
Int'l Code: 2023-015BA
Perigee: 565.4 km
Apogee: 567.1 km
Inclination: 43.0 °
Period: 95.8 minutes
Semi major axis: 6937 km
RCS: Unknown
Launch date: February 2, 2023
Source: United States (US)
Launch site: AIR FORCE EASTERN TEST RANGE (AFETR)
Your satellite tracking list
Your tracking list is empty




NASA's NSSDC Master Catalog

Two Line Element Set (TLE):
1 55497U 23015BA  25197.66658984  .00000123  00000-0  24207-4 0  9992
2 55497  43.0019 181.1467 0001257 280.9339  79.1362 15.02534885135105
Source of the keplerian elements: AFSPC